MDA218 ZHHH-RCSS

Flight info

Callsign MDA218
Flight time 2h 2m
Altitude 35100
Route BIVIP R343 UPLEL W95 SAPIN A470 AKDIM/K0872S1100 A470 BZ/K0872S1070 R596 SULEM/N0469F360 R596 BERBA B576 APU
Aircraft B738/M-SDE2E3FGHIRWXY/LB1

Departure

Time 2026-04-29 03:53
Airport Wuhan Tianhe International Airport (ZHHH)

Arrival

Time 2026-04-29 05:56
Airport Taipei Songshan International Airport (RCSS)
Time Latitude Longitude Altitude Speed Heading
2026-04-29 03:42 30.77453 114.21714 107 ft 0 kts 223°
2026-04-29 03:43 30.77470 114.21732 106 ft 4 kts 218°
2026-04-29 03:43 30.77491 114.21750 106 ft 4 kts 211°
2026-04-29 03:43 30.77516 114.21763 105 ft 4 kts 195°
2026-04-29 03:43 30.77540 114.21765 105 ft 4 kts 150°
2026-04-29 03:44 30.77549 114.21757 105 ft 1 kts 131°
2026-04-29 03:44 30.77549 114.21756 105 ft 0 kts 131°
2026-04-29 03:47 30.77542 114.21766 107 ft 5 kts 131°
2026-04-29 03:47 30.77500 114.21821 107 ft 13 kts 131°
2026-04-29 03:47 30.77422 114.21923 106 ft 20 kts 131°
2026-04-29 03:47 30.77325 114.22052 106 ft 22 kts 131°
2026-04-29 03:48 30.77233 114.22172 106 ft 18 kts 132°
2026-04-29 03:48 30.77170 114.22233 105 ft 10 kts 175°
2026-04-29 03:48 30.77107 114.22184 107 ft 14 kts 221°
2026-04-29 03:48 30.77015 114.22090 107 ft 21 kts 221°
2026-04-29 03:49 30.76896 114.21969 107 ft 24 kts 221°
2026-04-29 03:49 30.76775 114.21846 107 ft 23 kts 221°
2026-04-29 03:49 30.76658 114.21727 106 ft 22 kts 221°
2026-04-29 03:49 30.76546 114.21613 107 ft 21 kts 221°
2026-04-29 03:50 30.76436 114.21500 107 ft 21 kts 221°
2026-04-29 03:50 30.76328 114.21391 107 ft 20 kts 221°
2026-04-29 03:50 30.76225 114.21285 107 ft 20 kts 221°
2026-04-29 03:50 30.76109 114.21167 107 ft 22 kts 221°
2026-04-29 03:51 30.75989 114.21044 107 ft 23 kts 221°
2026-04-29 03:51 30.75901 114.20959 107 ft 10 kts 206°
2026-04-29 03:51 30.75853 114.20979 107 ft 6 kts 132°
2026-04-29 03:51 30.75814 114.21029 107 ft 12 kts 132°
2026-04-29 03:52 30.75791 114.21111 108 ft 9 kts 36°
2026-04-29 03:52 30.75839 114.21154 108 ft 9 kts 42°
2026-04-29 03:52 30.75979 114.21299 108 ft 58 kts 41°
2026-04-29 03:52 30.76441 114.21769 105 ft 119 kts 41°
2026-04-29 03:53 30.77197 114.22541 110 ft 168 kts 41°
2026-04-29 03:53 30.78087 114.23456 642 ft 171 kts 41°
2026-04-29 03:53 30.78954 114.24422 1238 ft 175 kts 59°
2026-04-29 03:53 30.79563 114.25653 1882 ft 176 kts 60°
2026-04-29 03:54 30.80231 114.26945 2285 ft 199 kts 58°
2026-04-29 03:54 30.81006 114.28371 2617 ft 218 kts 58°
2026-04-29 03:54 30.81855 114.29905 2951 ft 231 kts 57°
2026-04-29 03:54 30.82744 114.31486 3421 ft 240 kts 57°
2026-04-29 03:55 30.83627 114.33141 4071 ft 238 kts 64°
2026-04-29 03:55 30.84183 114.34971 4706 ft 242 kts 75°
2026-04-29 03:55 30.84602 114.36842 5476 ft 241 kts 76°
2026-04-29 03:55 30.85023 114.38733 6193 ft 243 kts 75°
2026-04-29 03:56 30.85468 114.40648 6880 ft 246 kts 75°
2026-04-29 03:56 30.85929 114.42576 7562 ft 248 kts 75°
2026-04-29 03:56 30.86399 114.44518 8235 ft 251 kts 75°
2026-04-29 03:56 30.86876 114.46481 8894 ft 253 kts 74°
2026-04-29 03:57 30.87420 114.48471 9328 ft 268 kts 70°
2026-04-29 03:57 30.88100 114.50605 9578 ft 288 kts 69°
2026-04-29 03:57 30.88828 114.52813 10149 ft 295 kts 69°
2026-04-29 03:57 30.89575 114.55075 10399 ft 315 kts 69°
2026-04-29 03:58 30.90386 114.57546 10567 ft 336 kts 69°
2026-04-29 03:58 30.91241 114.60165 10737 ft 356 kts 69°
2026-04-29 03:58 30.92135 114.62918 11083 ft 368 kts 69°
2026-04-29 03:58 30.93047 114.65736 11650 ft 372 kts 69°
2026-04-29 03:59 30.93958 114.68561 12304 ft 374 kts 70°
2026-04-29 03:59 30.94878 114.71421 12950 ft 377 kts 70°
2026-04-29 03:59 30.95792 114.74265 13552 ft 381 kts 70°
2026-04-29 03:59 30.96724 114.77167 14173 ft 385 kts 70°
2026-04-29 04:00 30.97662 114.80095 14803 ft 388 kts 70°
2026-04-29 04:00 30.98612 114.83058 15435 ft 391 kts 70°
2026-04-29 04:00 30.99566 114.86041 16053 ft 395 kts 70°
2026-04-29 04:00 31.00532 114.89063 16646 ft 398 kts 70°
2026-04-29 04:01 31.01504 114.92106 17214 ft 402 kts 70°
2026-04-29 04:01 31.02484 114.95177 17784 ft 405 kts 70°
2026-04-29 04:01 31.03469 114.98266 18318 ft 408 kts 70°
2026-04-29 04:01 31.04450 115.01344 18851 ft 412 kts 70°
2026-04-29 04:02 31.05450 115.04488 19373 ft 415 kts 70°
2026-04-29 04:02 31.06457 115.07655 19889 ft 418 kts 70°
2026-04-29 04:02 31.07471 115.10848 20381 ft 421 kts 70°
2026-04-29 04:02 31.08491 115.14064 20866 ft 424 kts 70°
2026-04-29 04:03 31.09521 115.17312 21327 ft 427 kts 70°
2026-04-29 04:03 31.10555 115.20578 21775 ft 430 kts 70°
2026-04-29 04:03 31.11596 115.23869 22198 ft 433 kts 70°
2026-04-29 04:03 31.12640 115.27172 22631 ft 436 kts 70°
2026-04-29 04:04 31.13687 115.30463 23041 ft 439 kts 70°
2026-04-29 04:04 31.14769 115.33819 23429 ft 441 kts 69°
2026-04-29 04:04 31.15861 115.37185 23820 ft 444 kts 69°
2026-04-29 04:04 31.16959 115.40570 24195 ft 446 kts 69°
2026-04-29 04:05 31.18050 115.43939 24546 ft 449 kts 69°
2026-04-29 04:05 31.19155 115.47362 24897 ft 451 kts 69°
2026-04-29 04:05 31.20263 115.50804 25239 ft 454 kts 69°
2026-04-29 04:05 31.21371 115.54249 25572 ft 456 kts 69°
2026-04-29 04:06 31.22489 115.57731 25885 ft 458 kts 70°
2026-04-29 04:06 31.23613 115.61234 26204 ft 460 kts 70°
2026-04-29 04:06 31.24360 115.63567 26398 ft 462 kts 70°
2026-04-29 04:06 31.25868 115.68277 26801 ft 464 kts 70°
2026-04-29 04:07 31.26616 115.70618 26990 ft 466 kts 70°
2026-04-29 04:07 31.28137 115.75378 27361 ft 469 kts 70°
2026-04-29 04:07 31.29279 115.78956 27629 ft 470 kts 70°
2026-04-29 04:07 31.30038 115.81330 27806 ft 472 kts 70°
2026-04-29 04:08 31.31189 115.84930 28064 ft 473 kts 70°
2026-04-29 04:08 31.32341 115.88536 28381 ft 473 kts 70°
2026-04-29 04:08 31.33505 115.92140 28745 ft 472 kts 69°
2026-04-29 04:08 31.34675 115.95728 29124 ft 471 kts 69°
2026-04-29 04:09 31.36225 116.00464 29614 ft 469 kts 69°
2026-04-29 04:09 31.37000 116.02832 29850 ft 469 kts 69°
2026-04-29 04:09 31.38162 116.06393 30196 ft 468 kts 69°
2026-04-29 04:09 31.39321 116.09953 30539 ft 468 kts 69°
2026-04-29 04:10 31.40476 116.13510 30862 ft 467 kts 69°
2026-04-29 04:10 31.41629 116.17065 31192 ft 466 kts 69°
2026-04-29 04:10 31.42779 116.20619 31513 ft 466 kts 69°
2026-04-29 04:10 31.43923 116.24157 31824 ft 465 kts 69°
2026-04-29 04:11 31.45067 116.27698 32141 ft 465 kts 69°
2026-04-29 04:11 31.46210 116.31243 32440 ft 464 kts 69°
2026-04-29 04:11 31.47350 116.34779 32735 ft 463 kts 69°
2026-04-29 04:11 31.48484 116.38300 33024 ft 463 kts 69°
2026-04-29 04:12 31.49619 116.41829 33293 ft 462 kts 69°
2026-04-29 04:12 31.50754 116.45361 33565 ft 462 kts 69°
2026-04-29 04:12 31.51884 116.48883 33826 ft 462 kts 69°
2026-04-29 04:12 31.52999 116.52362 34076 ft 461 kts 69°
2026-04-29 04:13 31.54128 116.55887 34242 ft 463 kts 69°
2026-04-29 04:13 31.55267 116.59449 34324 ft 467 kts 70°
2026-04-29 04:13 31.56408 116.63018 34425 ft 470 kts 70°
2026-04-29 04:13 31.57554 116.66609 34600 ft 470 kts 70°
2026-04-29 04:14 31.58704 116.70216 34855 ft 469 kts 70°
2026-04-29 04:14 31.59842 116.73791 35105 ft 468 kts 70°
2026-04-29 04:14 31.62115 116.80941 35104 ft 470 kts 70°
2026-04-29 04:15 31.64392 116.88120 35102 ft 467 kts 70°
2026-04-29 04:15 31.66652 116.95261 35100 ft 465 kts 70°
2026-04-29 04:16 31.68894 117.02367 35103 ft 463 kts 70°
2026-04-29 04:16 31.71101 117.09475 35102 ft 463 kts 70°
2026-04-29 04:17 31.73301 117.16594 35104 ft 463 kts 70°
2026-04-29 04:17 31.75487 117.23668 35104 ft 464 kts 70°
2026-04-29 04:18 31.77157 117.30991 35107 ft 465 kts 84°
2026-04-29 04:18 31.77062 117.38572 35111 ft 466 kts 95°
2026-04-29 04:19 31.76459 117.46183 35101 ft 468 kts 95°
2026-04-29 04:19 31.75876 117.53806 35103 ft 469 kts 95°
2026-04-29 04:20 31.75333 117.61410 35101 ft 470 kts 95°
2026-04-29 04:20 31.74796 117.69057 35101 ft 470 kts 95°
2026-04-29 04:21 31.74253 117.76718 35100 ft 470 kts 95°
2026-04-29 04:21 31.73703 117.84373 35100 ft 469 kts 95°
2026-04-29 04:22 31.73150 117.92006 35102 ft 469 kts 95°
2026-04-29 04:22 31.72596 117.99595 35101 ft 469 kts 95°
2026-04-29 04:23 31.72036 118.07219 35100 ft 468 kts 95°
2026-04-29 04:23 31.71481 118.14853 35100 ft 468 kts 95°
2026-04-29 04:24 31.70954 118.22466 35101 ft 468 kts 95°
2026-04-29 04:24 31.70426 118.30088 35100 ft 468 kts 95°
2026-04-29 04:25 31.69893 118.37665 35101 ft 467 kts 95°
2026-04-29 04:25 31.69350 118.45280 35101 ft 467 kts 95°
2026-04-29 04:26 31.68804 118.52883 35101 ft 467 kts 95°
2026-04-29 04:26 31.68253 118.60488 35101 ft 467 kts 95°
2026-04-29 04:27 31.67698 118.68076 35101 ft 467 kts 95°
2026-04-29 04:27 31.67137 118.75689 35101 ft 467 kts 95°
2026-04-29 04:28 31.66573 118.83287 35102 ft 467 kts 95°
2026-04-29 04:28 31.66005 118.90891 35101 ft 467 kts 95°
2026-04-29 04:29 31.64512 118.98177 35113 ft 465 kts 120°
2026-04-29 04:29 31.62651 119.01277 35097 ft 464 kts 134°
2026-04-29 04:29 31.60192 119.03705 35118 ft 463 kts 145°
2026-04-29 04:30 31.54936 119.08069 35103 ft 464 kts 144°
2026-04-29 04:31 31.47158 119.14856 35102 ft 465 kts 143°
2026-04-29 04:31 31.41967 119.19397 35101 ft 466 kts 143°
2026-04-29 04:32 31.36767 119.23937 35100 ft 466 kts 143°
2026-04-29 04:32 31.31561 119.28476 35103 ft 466 kts 143°
2026-04-29 04:33 31.26354 119.33011 35101 ft 466 kts 143°
2026-04-29 04:33 31.21185 119.37508 35102 ft 466 kts 143°
2026-04-29 04:34 31.15985 119.42039 35102 ft 466 kts 143°
2026-04-29 04:34 31.10780 119.46595 35100 ft 466 kts 143°
2026-04-29 04:35 31.05593 119.51132 35101 ft 466 kts 143°
2026-04-29 04:35 31.00404 119.55662 35101 ft 466 kts 143°
2026-04-29 04:36 30.95207 119.60190 35101 ft 466 kts 143°
2026-04-29 04:36 30.90040 119.64686 35102 ft 466 kts 143°
2026-04-29 04:37 30.84844 119.69202 35103 ft 466 kts 143°
2026-04-29 04:37 30.79654 119.73706 35104 ft 466 kts 143°
2026-04-29 04:38 30.74455 119.78213 35099 ft 466 kts 143°
2026-04-29 04:38 30.69248 119.82704 35103 ft 466 kts 144°
2026-04-29 04:39 30.64013 119.87154 35099 ft 466 kts 144°
2026-04-29 04:39 30.58793 119.91615 35102 ft 466 kts 143°
2026-04-29 04:40 30.53692 119.96191 35099 ft 466 kts 142°
2026-04-29 04:40 30.48532 120.00738 35086 ft 465 kts 149°
2026-04-29 04:40 30.45565 120.02203 35114 ft 463 kts 167°
2026-04-29 04:41 30.42368 120.02589 35103 ft 462 kts 183°
2026-04-29 04:41 30.39209 120.02030 35101 ft 461 kts 197°
2026-04-29 04:41 30.36282 120.00538 35121 ft 460 kts 209°
2026-04-29 04:42 30.30741 119.96789 35103 ft 461 kts 211°
2026-04-29 04:42 30.25216 119.93001 35099 ft 462 kts 210°
2026-04-29 04:43 30.19671 119.89295 35101 ft 463 kts 210°
2026-04-29 04:43 30.14068 119.85591 35103 ft 464 kts 210°
2026-04-29 04:44 30.08455 119.81884 35100 ft 465 kts 210°
2026-04-29 04:44 30.02843 119.78166 35100 ft 465 kts 210°
2026-04-29 04:45 29.97253 119.74399 35102 ft 464 kts 210°
2026-04-29 04:45 29.91671 119.70640 35101 ft 464 kts 210°
2026-04-29 04:46 29.85938 119.67349 35106 ft 464 kts 198°
2026-04-29 04:46 29.79589 119.66036 35104 ft 464 kts 182°
2026-04-29 04:47 29.73134 119.65794 35098 ft 464 kts 183°
2026-04-29 04:47 29.66720 119.65373 35097 ft 464 kts 184°
2026-04-29 04:48 29.60277 119.64975 35101 ft 464 kts 181°
2026-04-29 04:48 29.53800 119.64858 35101 ft 464 kts 181°
2026-04-29 04:49 29.47345 119.64517 35102 ft 464 kts 184°
2026-04-29 04:49 29.40895 119.64050 35101 ft 464 kts 184°
2026-04-29 04:50 29.34486 119.63618 35102 ft 464 kts 183°
2026-04-29 04:50 29.28030 119.63211 35098 ft 464 kts 183°
2026-04-29 04:51 29.21570 119.62810 35099 ft 464 kts 183°
2026-04-29 04:51 29.16213 119.62476 35105 ft 464 kts 183°
2026-04-29 04:52 29.08676 119.62005 35101 ft 464 kts 183°
2026-04-29 04:52 29.03323 119.61671 35103 ft 464 kts 183°
2026-04-29 04:53 28.96866 119.61269 35102 ft 464 kts 183°
2026-04-29 04:53 28.90421 119.60867 35103 ft 463 kts 183°
2026-04-29 04:54 28.84021 119.60469 35100 ft 463 kts 183°
2026-04-29 04:54 28.77584 119.60069 35098 ft 463 kts 183°
2026-04-29 04:55 28.71145 119.59669 35108 ft 463 kts 183°
2026-04-29 04:55 28.64696 119.59269 35101 ft 464 kts 183°
2026-04-29 04:56 28.58243 119.58870 35103 ft 464 kts 183°
2026-04-29 04:56 28.51804 119.58471 35099 ft 464 kts 183°
2026-04-29 04:57 28.45350 119.58073 35103 ft 464 kts 183°
2026-04-29 04:57 28.38890 119.57719 35101 ft 464 kts 183°
2026-04-29 04:58 28.32435 119.57384 35104 ft 464 kts 183°
2026-04-29 04:58 28.26020 119.57044 35099 ft 464 kts 183°
2026-04-29 04:59 28.19562 119.56699 35103 ft 464 kts 183°
2026-04-29 04:59 28.16328 119.56718 35077 ft 464 kts 171°
2026-04-29 04:59 28.13241 119.57755 35114 ft 464 kts 154°
2026-04-29 04:59 28.10585 119.59718 35106 ft 464 kts 138°
2026-04-29 05:00 28.08413 119.62420 35098 ft 464 kts 124°
2026-04-29 05:00 28.06944 119.65669 35121 ft 464 kts 111°
2026-04-29 05:00 28.05802 119.69091 35104 ft 465 kts 110°
2026-04-29 05:01 28.03650 119.76013 35099 ft 466 kts 109°
2026-04-29 05:01 28.01466 119.82944 35097 ft 467 kts 110°
2026-04-29 05:02 27.99239 119.89811 35103 ft 467 kts 110°
2026-04-29 05:02 27.96970 119.96721 35098 ft 468 kts 110°
2026-04-29 05:03 27.94707 120.03593 35104 ft 468 kts 110°
2026-04-29 05:03 27.92429 120.10504 35101 ft 468 kts 110°
2026-04-29 05:04 27.90152 120.17407 35101 ft 468 kts 111°
2026-04-29 05:04 27.87865 120.24324 35100 ft 468 kts 111°
2026-04-29 05:05 27.85598 120.31169 35102 ft 468 kts 111°
2026-04-29 05:05 27.83309 120.38067 35102 ft 468 kts 111°
2026-04-29 05:06 27.81082 120.44764 35102 ft 467 kts 111°
2026-04-29 05:06 27.78792 120.51639 35102 ft 467 kts 111°
2026-04-29 05:07 27.76501 120.58507 35100 ft 467 kts 111°
2026-04-29 05:07 27.74529 120.65149 35096 ft 467 kts 102°
2026-04-29 05:08 27.73292 120.72354 35103 ft 467 kts 101°
2026-04-29 05:08 27.72134 120.79531 35099 ft 467 kts 101°
2026-04-29 05:09 27.70927 120.86733 35102 ft 467 kts 101°
2026-04-29 05:09 27.69688 120.93937 35101 ft 467 kts 101°
2026-04-29 05:10 27.68438 121.01133 35103 ft 467 kts 101°
2026-04-29 05:10 27.67187 121.08321 35103 ft 467 kts 101°
2026-04-29 05:11 27.65934 121.15510 35102 ft 467 kts 101°
2026-04-29 05:11 27.64685 121.22652 35102 ft 467 kts 101°
2026-04-29 05:12 27.63423 121.29848 35101 ft 467 kts 101°
2026-04-29 05:12 27.62156 121.37045 35101 ft 467 kts 101°
2026-04-29 05:13 27.60886 121.44240 35101 ft 467 kts 101°
2026-04-29 05:13 27.59612 121.51438 35103 ft 468 kts 101°
2026-04-29 05:14 27.58335 121.58630 35101 ft 468 kts 101°
2026-04-29 05:14 27.57107 121.65791 35102 ft 468 kts 101°
2026-04-29 05:15 27.55890 121.72987 35101 ft 468 kts 101°
2026-04-29 05:15 27.54663 121.80200 35101 ft 468 kts 101°
2026-04-29 05:16 27.53431 121.87388 35101 ft 468 kts 101°
2026-04-29 05:16 27.52191 121.94591 35101 ft 468 kts 101°
2026-04-29 05:17 27.50948 122.01792 35103 ft 468 kts 101°
2026-04-29 05:17 27.49704 122.08976 35101 ft 468 kts 101°
2026-04-29 05:18 27.48461 122.16127 35101 ft 468 kts 101°
2026-04-29 05:18 27.47208 122.23321 35102 ft 468 kts 101°
2026-04-29 05:19 27.45954 122.30495 35101 ft 467 kts 101°
2026-04-29 05:19 27.44691 122.37698 35101 ft 467 kts 101°
2026-04-29 05:20 27.43780 122.44937 35097 ft 467 kts 91°
2026-04-29 05:20 27.43812 122.52244 35097 ft 468 kts 89°
2026-04-29 05:21 27.43869 122.59594 35005 ft 469 kts 90°
2026-04-29 05:21 27.43863 122.66878 35010 ft 467 kts 90°
2026-04-29 05:22 27.43838 122.74192 34998 ft 468 kts 90°
2026-04-29 05:22 27.42899 122.81372 35020 ft 466 kts 116°
2026-04-29 05:22 27.41145 122.84414 34985 ft 465 kts 134°
2026-04-29 05:23 27.38743 122.86831 35010 ft 464 kts 144°
2026-04-29 05:23 27.35932 122.88595 35022 ft 463 kts 158°
2026-04-29 05:23 27.32914 122.89859 35008 ft 463 kts 161°
2026-04-29 05:24 27.26799 122.92183 35001 ft 465 kts 161°
2026-04-29 05:24 27.20742 122.94644 34994 ft 466 kts 160°
2026-04-29 05:25 27.14664 122.97169 34996 ft 466 kts 160°
2026-04-29 05:25 27.08355 122.98436 35015 ft 464 kts 187°
2026-04-29 05:25 27.05211 122.97618 34999 ft 464 kts 201°
2026-04-29 05:26 27.02365 122.95941 35007 ft 463 kts 214°
2026-04-29 05:26 26.97134 122.91702 35007 ft 464 kts 216°
2026-04-29 05:27 26.91922 122.87428 35002 ft 465 kts 216°
2026-04-29 05:27 26.84014 122.81127 34997 ft 465 kts 215°
2026-04-29 05:28 26.78760 122.76980 34995 ft 465 kts 215°
2026-04-29 05:28 26.73475 122.72806 35006 ft 464 kts 215°
2026-04-29 05:29 26.68186 122.68633 35007 ft 464 kts 215°
2026-04-29 05:29 26.62911 122.64472 35000 ft 464 kts 215°
2026-04-29 05:30 26.57626 122.60303 34997 ft 464 kts 215°
2026-04-29 05:30 26.52377 122.56166 35004 ft 464 kts 215°
2026-04-29 05:31 26.47104 122.52014 35009 ft 464 kts 215°
2026-04-29 05:31 26.41821 122.47860 35007 ft 464 kts 215°
2026-04-29 05:32 26.36549 122.43719 34947 ft 465 kts 215°
2026-04-29 05:32 26.33875 122.41620 34295 ft 471 kts 215°
2026-04-29 05:32 26.31196 122.39519 33615 ft 468 kts 215°
2026-04-29 05:33 26.28531 122.37430 32870 ft 468 kts 215°
2026-04-29 05:33 26.25901 122.35369 32103 ft 469 kts 215°
2026-04-29 05:33 26.23228 122.33276 31289 ft 470 kts 215°
2026-04-29 05:33 26.20541 122.31173 30418 ft 472 kts 215°
2026-04-29 05:34 26.17847 122.29065 29519 ft 473 kts 215°
2026-04-29 05:34 26.15142 122.26951 28563 ft 475 kts 215°
2026-04-29 05:34 26.12425 122.24832 27534 ft 477 kts 215°
2026-04-29 05:34 26.09685 122.22717 26449 ft 480 kts 214°
2026-04-29 05:35 26.06938 122.20608 25557 ft 478 kts 214°
2026-04-29 05:35 26.04244 122.18543 24728 ft 474 kts 214°
2026-04-29 05:35 26.01546 122.16475 23947 ft 469 kts 214°
2026-04-29 05:35 25.98875 122.14427 23177 ft 463 kts 214°
2026-04-29 05:36 25.96233 122.12400 22403 ft 459 kts 214°
2026-04-29 05:36 25.93625 122.10399 21636 ft 454 kts 214°
2026-04-29 05:36 25.91040 122.08416 20886 ft 449 kts 214°
2026-04-29 05:36 25.88505 122.06473 20138 ft 444 kts 214°
2026-04-29 05:37 25.85953 122.04517 19378 ft 439 kts 214°
2026-04-29 05:37 25.83453 122.02603 18655 ft 434 kts 214°
2026-04-29 05:37 25.81809 122.01344 18163 ft 431 kts 214°
2026-04-29 05:37 25.78557 121.98855 17203 ft 425 kts 214°
2026-04-29 05:38 25.76916 121.97600 16713 ft 422 kts 214°
2026-04-29 05:38 25.75152 121.96252 16198 ft 419 kts 214°
2026-04-29 05:38 25.73574 121.95046 15729 ft 416 kts 214°
2026-04-29 05:39 25.71196 121.93231 15021 ft 412 kts 214°
2026-04-29 05:39 25.68845 121.91439 14324 ft 407 kts 214°
2026-04-29 05:39 25.67275 121.90243 13858 ft 405 kts 214°
2026-04-29 05:39 25.64998 121.88509 13182 ft 400 kts 214°
2026-04-29 05:40 25.61952 121.86185 12533 ft 389 kts 214°
2026-04-29 05:40 25.60510 121.85082 12375 ft 372 kts 214°
2026-04-29 05:40 25.58432 121.83492 11874 ft 356 kts 214°
2026-04-29 05:40 25.56434 121.81964 11474 ft 341 kts 214°
2026-04-29 05:41 25.54515 121.80496 10975 ft 330 kts 214°
2026-04-29 05:41 25.52652 121.79069 10641 ft 317 kts 214°
2026-04-29 05:41 25.50891 121.77723 10491 ft 301 kts 214°
2026-04-29 05:41 25.49193 121.76425 10357 ft 292 kts 214°
2026-04-29 05:42 25.47559 121.75178 10235 ft 284 kts 214°
2026-04-29 05:42 25.45906 121.74065 10104 ft 275 kts 200°
2026-04-29 05:42 25.44044 121.73787 9881 ft 271 kts 172°
2026-04-29 05:42 25.42290 121.74485 9677 ft 271 kts 147°
2026-04-29 05:43 25.40856 121.75850 9459 ft 275 kts 135°
2026-04-29 05:43 25.39507 121.77370 9214 ft 278 kts 136°
2026-04-29 05:43 25.38078 121.78830 8973 ft 281 kts 140°
2026-04-29 05:43 25.36567 121.80171 8718 ft 279 kts 144°
2026-04-29 05:44 25.34965 121.81409 8460 ft 276 kts 147°
2026-04-29 05:44 25.33362 121.82493 8202 ft 273 kts 151°
2026-04-29 05:44 25.31695 121.83473 7960 ft 270 kts 154°
2026-04-29 05:44 25.29988 121.84336 7708 ft 268 kts 158°
2026-04-29 05:45 25.28260 121.85076 7451 ft 266 kts 161°
2026-04-29 05:45 25.26508 121.85716 7200 ft 264 kts 163°
2026-04-29 05:45 25.24763 121.86252 6954 ft 262 kts 166°
2026-04-29 05:45 25.22982 121.86677 6703 ft 261 kts 170°
2026-04-29 05:46 25.21188 121.86969 6449 ft 260 kts 174°
2026-04-29 05:46 25.19383 121.87128 6204 ft 260 kts 178°
2026-04-29 05:46 25.17583 121.87166 5951 ft 259 kts 181°
2026-04-29 05:46 25.15825 121.87096 5795 ft 253 kts 184°
2026-04-29 05:47 25.14071 121.86922 5549 ft 252 kts 187°
2026-04-29 05:47 25.12365 121.86654 5445 ft 243 kts 191°
2026-04-29 05:47 25.10856 121.85936 5321 ft 234 kts 221°
2026-04-29 05:47 25.09955 121.84528 5253 ft 219 kts 251°
2026-04-29 05:48 25.09752 121.82917 5149 ft 207 kts 274°
2026-04-29 05:48 25.10036 121.81398 4916 ft 201 kts 298°
2026-04-29 05:48 25.11055 121.80486 4761 ft 189 kts 347°
2026-04-29 05:48 25.12305 121.80737 4677 ft 187 kts 38°
2026-04-29 05:49 25.13057 121.81851 4657 ft 185 kts 71°
2026-04-29 05:49 25.12982 121.83229 4639 ft 184 kts 120°
2026-04-29 05:49 25.12045 121.84148 4666 ft 184 kts 161°
2026-04-29 05:49 25.10785 121.84344 4684 ft 184 kts 185°
2026-04-29 05:50 25.09572 121.83942 4669 ft 182 kts 211°
2026-04-29 05:50 25.08656 121.82998 4673 ft 181 kts 235°
2026-04-29 05:50 25.08158 121.81730 4601 ft 185 kts 262°
2026-04-29 05:50 25.08116 121.80289 4413 ft 189 kts 268°
2026-04-29 05:51 25.08089 121.78853 4185 ft 185 kts 268°
2026-04-29 05:51 25.08063 121.77448 3976 ft 180 kts 268°
2026-04-29 05:51 25.08040 121.76079 3782 ft 177 kts 268°
2026-04-29 05:51 25.08018 121.74715 3615 ft 178 kts 268°
2026-04-29 05:52 25.07995 121.73342 3425 ft 180 kts 268°
2026-04-29 05:52 25.07974 121.71984 3222 ft 179 kts 268°
2026-04-29 05:52 25.07932 121.70600 2951 ft 179 kts 265°
2026-04-29 05:52 25.07828 121.69261 2695 ft 171 kts 264°
2026-04-29 05:53 25.07723 121.67988 2457 ft 161 kts 264°
2026-04-29 05:53 25.07625 121.66793 2218 ft 154 kts 264°
2026-04-29 05:53 25.07531 121.65629 1996 ft 153 kts 264°
2026-04-29 05:53 25.07436 121.64449 1769 ft 155 kts 264°
2026-04-29 05:54 25.07338 121.63269 1515 ft 155 kts 264°
2026-04-29 05:54 25.07234 121.62087 1234 ft 153 kts 264°
2026-04-29 05:54 25.07147 121.60918 963 ft 152 kts 265°
2026-04-29 05:54 25.07062 121.59751 735 ft 152 kts 264°
2026-04-29 05:55 25.06969 121.58607 487 ft 152 kts 264°
2026-04-29 05:55 25.06914 121.57447 239 ft 150 kts 268°
2026-04-29 05:55 25.06925 121.56313 43 ft 147 kts 271°
2026-04-29 05:55 25.06958 121.55290 26 ft 109 kts 272°
2026-04-29 05:56 25.06980 121.54689 28 ft 50 kts 272°
2026-04-29 05:56 25.06991 121.54370 26 ft 33 kts 272°
2026-04-29 05:56 25.06997 121.54187 27 ft 18 kts 272°
2026-04-29 05:56 25.07002 121.54049 28 ft 14 kts 272°
2026-04-29 05:57 25.06973 121.53979 27 ft 10 kts 197°
2026-04-29 05:57 25.06918 121.54005 27 ft 9 kts 117°
2026-04-29 05:57 25.06912 121.54076 27 ft 9 kts 91°
2026-04-29 05:57 25.06907 121.54143 27 ft 9 kts 104°
2026-04-29 05:58 25.06878 121.54212 26 ft 12 kts 120°
2026-04-29 05:58 25.06824 121.54309 26 ft 18 kts 121°
2026-04-29 05:58 25.06765 121.54414 26 ft 15 kts 121°
2026-04-29 05:58 25.06710 121.54511 26 ft 15 kts 129°
2026-04-29 05:59 25.06647 121.54595 26 ft 14 kts 122°
2026-04-29 05:59 25.06600 121.54680 26 ft 10 kts 122°
2026-04-29 05:59 25.06570 121.54746 26 ft 10 kts 106°
2026-04-29 05:59 25.06565 121.54822 26 ft 10 kts 88°
2026-04-29 06:00 25.06567 121.54894 26 ft 9 kts 88°
2026-04-29 06:00 25.06585 121.54937 29 ft 6 kts 23°
2026-04-29 06:00 25.06621 121.54938 29 ft 4 kts 357°
2026-04-29 06:00 25.06638 121.54937 30 ft 1 kts 357°
2026-04-29 06:01 25.06644 121.54937 29 ft 1 kts 358°
2026-04-29 06:01 25.06649 121.54936 29 ft 0 kts 358°